sat.trackr.live / text

‹ back to catalog

STARLINK-37233

NORAD 68562 · 2026-070W

PAYLOAD ACTIVE UNKNOWN

§ Identity

Operator
Country
US
Launch date
2026-04-02
Launch site
AFETR
Launch vehicle
Mass (kg)
RCS (m²)

Purposes: comms

External: N2YO · Heavens-Above · Gunter

§ Orbital elements

Epoch: 2026-09-20T04:37:33.377952Z

Period
93.85 min
Inclination
53.1570°
Eccentricity
0.0001485
Mean motion
15.34416154 rev/d
Perigee alt
461.6 km
Apogee alt
463.7 km
Semi-major
6,840.8 km
B*
6.7012e-4
RAAN
174.8820°
Arg perigee
87.5613°
Mean anomaly
272.5560°
Rev number
2,639

§ Raw data

STARLINK-372331 68562U 26070W   26263.19274743  .00022344  00000+0  67012-3 0  99912 68562  53.1570 174.8820 0001485  87.5613 272.5560 15.34416154 26399

JSON: /api/v1/satellites/68562 · /tle

For live sub-satellite position, see the globe view (requires WebGL).

§ Visibility from observer

Set your observer location to see the next 7 days of passes ≥ 10°. The values pass through the URL so the page stays shareable.

No JS? Fill the form by hand. The geolocation button needs JavaScript.